owner,sensor,date,latitude,longitude,vertical_datum,direction_of_sea_water_velocity,sea_water_speed,upward_sea_water_velocity,qcFlag 
TABS,ioos:station:wmo:42047:1,2013-05-01T00:00:00Z,27.8966,-93.5973,2.0,87.47899598,19.77914306,-99999.0,'11111222,11111222,99999999' 
TABS,ioos:station:wmo:42047:1,2013-05-01T00:30:00Z,27.8966,-93.5973,2.0,96.16044213,19.00977643,-99999.0,'11111222,11111222,99999999' 
TABS,ioos:station:wmo:42047:1,2013-05-01T01:00:00Z,27.8966,-93.5973,2.0,98.4671795,21.39317882,-99999.0,'11111222,11111222,99999999' 
TABS,ioos:station:wmo:42047:1,2013-05-01T01:30:00Z,27.8966,-93.5973,2.0,97.83235821,21.50057906,-99999.0,'11111222,11111222,99999999' 
TABS,ioos:station:wmo:42047:1,2013-05-01T02:00:00Z,27.8966,-93.5973,2.0,121.5812181,17.18515639,-99999.0,'11111222,11111222,99999999' 
TABS,ioos:station:wmo:42047:1,2013-05-01T02:30:00Z,27.8966,-93.5973,2.0,133.0101421,15.07046117,-99999.0,'11111222,11111222,99999999' 
TABS,ioos:station:wmo:42047:1,2013-05-01T03:00:00Z,27.8966,-93.5973,2.0,128.2156892,18.13700361,-99999.0,'11111222,11111222,99999999' 
TABS,ioos:station:wmo:42047:1,2013-05-01T03:30:00Z,27.8966,-93.5973,2.0,108.7821478,15.65356189,-99999.0,'11111222,11111222,99999999' 
TABS,ioos:station:wmo:42047:1,2013-05-01T04:00:00Z,27.8966,-93.5973,2.0,95.39842888,12.96751711,-99999.0,'11111222,11111222,99999999' 
TABS,ioos:station:wmo:42047:1,2013-05-01T04:30:00Z,27.8966,-93.5973,2.0,92.41046092,10.69946728,-99999.0,'11111222,11111222,99999999' 
TABS,ioos:station:wmo:42047:1,2013-05-01T05:00:00Z,27.8966,-93.5973,2.0,98.15072051,11.77898553,-99999.0,'11111222,11111222,99999999' 
TABS,ioos:station:wmo:42047:1,2013-05-01T05:30:00Z,27.8966,-93.5973,2.0,119.7299413,9.558116969,-99999.0,'11133222,11111222,99999999' 
TABS,ioos:station:wmo:42047:1,2013-05-01T06:00:00Z,27.8966,-93.5973,2.0,82.72826866,11.13959604,-99999.0,'11111222,11111222,99999999' 
TABS,ioos:station:wmo:42047:1,2013-05-01T06:30:00Z,27.8966,-93.5973,2.0,105.4884652,9.47405932,-99999.0,'11133222,11111222,99999999' 
TABS,ioos:station:wmo:42047:1,2013-05-01T07:00:00Z,27.8966,-93.5973,2.0,69.00254264,13.36766621,-99999.0,'11111222,11111222,99999999' 
TABS,ioos:station:wmo:42047:1,2013-05-01T07:30:00Z,27.8966,-93.5973,2.0,49.9202656,12.03688498,-99999.0,'11111222,11111222,99999999' 
TABS,ioos:station:wmo:42047:1,2013-05-01T08:00:00Z,27.8966,-93.5973,2.0,120.3111423,7.529276194,-99999.0,'11133222,11111222,99999999' 
TABS,ioos:station:wmo:42047:1,2013-05-01T08:30:00Z,27.8966,-93.5973,2.0,109.6832815,6.531653696,-99999.0,'11133222,11111222,99999999' 
TABS,ioos:station:wmo:42047:1,2013-05-01T09:00:00Z,27.8966,-93.5973,2.0,117.6777134,7.599592094,-99999.0,'11133222,11111222,99999999' 
TABS,ioos:station:wmo:42047:1,2013-05-01T09:30:00Z,27.8966,-93.5973,2.0,95.54599926,7.967295652,-99999.0,'11133222,11111222,99999999' 
TABS,ioos:station:wmo:42047:1,2013-05-01T10:00:00Z,27.8966,-93.5973,2.0,108.1843954,5.062854926,-99999.0,'11133222,11111222,99999999' 
TABS,ioos:station:wmo:42047:1,2013-05-01T10:30:00Z,27.8966,-93.5973,2.0,335.5563128,1.812456896,-99999.0,'11133222,11111222,99999999' 
TABS,ioos:station:wmo:42047:1,2013-05-01T11:00:00Z,27.8966,-93.5973,2.0,34.48750264,4.185618234,-99999.0,'11133222,11111222,99999999' 
TABS,ioos:station:wmo:42047:1,2013-05-01T11:30:00Z,27.8966,-93.5973,2.0,28.89386877,4.8428504,-99999.0,'11133222,11111222,99999999' 
TABS,ioos:station:wmo:42047:1,2013-05-01T12:00:00Z,27.8966,-93.5973,2.0,75.96378935,4.782802526,-99999.0,'11133222,11111222,99999999' 
TABS,ioos:station:wmo:42047:1,2013-05-01T12:30:00Z,27.8966,-93.5973,2.0,81.72924015,8.063870039,-99999.0,'11133222,11111222,99999999' 
TABS,ioos:station:wmo:42047:1,2013-05-01T13:00:00Z,27.8966,-93.5973,2.0,114.9202477,7.167314699,-99999.0,'11133222,11111222,99999999' 
TABS,ioos:station:wmo:42047:1,2013-05-01T13:30:00Z,27.8966,-93.5973,2.0,124.7167507,8.357900454,-99999.0,'11133222,11111222,99999999' 
TABS,ioos:station:wmo:42047:1,2013-05-01T14:00:00Z,27.8966,-93.5973,2.0,135.4491704,17.13372406,-99999.0,'11111222,11111222,99999999' 
TABS,ioos:station:wmo:42047:1,2013-05-01T14:30:00Z,27.8966,-93.5973,2.0,137.8093139,12.98394393,-99999.0,'11111222,11111222,99999999' 
TABS,ioos:station:wmo:42047:1,2013-05-01T15:00:00Z,27.8966,-93.5973,2.0,152.07719,16.42182085,-99999.0,'11111222,11111222,99999999' 
TABS,ioos:station:wmo:42047:1,2013-05-01T15:30:00Z,27.8966,-93.5973,2.0,156.0665478,25.90757611,-99999.0,'11111222,11111222,99999999' 
TABS,ioos:station:wmo:42047:1,2013-05-01T16:00:00Z,27.8966,-93.5973,2.0,162.608405,17.36378415,-99999.0,'11111222,11111222,99999999' 
TABS,ioos:station:wmo:42047:1,2013-05-01T16:30:00Z,27.8966,-93.5973,2.0,45.1812289,6.710476883,-99999.0,'11133222,11111222,99999999' 
TABS,ioos:station:wmo:42047:1,2013-05-01T17:00:00Z,27.8966,-93.5973,2.0,49.61748491,9.662152969,-99999.0,'11133222,11111222,99999999' 
TABS,ioos:station:wmo:42047:1,2013-05-01T17:30:00Z,27.8966,-93.5973,2.0,58.14432941,7.711510877,-99999.0,'11133222,11111222,99999999' 
TABS,ioos:station:wmo:42047:1,2013-05-01T18:00:00Z,27.8966,-93.5973,2.0,67.55729912,9.456199025,-99999.0,'11133222,11111222,99999999' 
TABS,ioos:station:wmo:42047:1,2013-05-01T18:30:00Z,27.8966,-93.5973,2.0,63.06922827,7.70564728,-99999.0,'11133222,11111222,99999999' 
TABS,ioos:station:wmo:42047:1,2013-05-01T19:00:00Z,27.8966,-93.5973,2.0,60.92214829,11.93419038,-99999.0,'11111222,11111222,99999999' 
TABS,ioos:station:wmo:42047:1,2013-05-01T19:30:00Z,27.8966,-93.5973,2.0,121.2954592,3.850207787,-99999.0,'11133222,11111222,99999999' 
TABS,ioos:station:wmo:42047:1,2013-05-01T20:00:00Z,27.8966,-93.5973,2.0,66.53921135,5.450587124,-99999.0,'11133222,11111222,99999999' 
TABS,ioos:station:wmo:42047:1,2013-05-01T20:30:00Z,27.8966,-93.5973,2.0,181.24877,13.76326996,-99999.0,'11111222,11111222,99999999' 
TABS,ioos:station:wmo:42047:1,2013-05-01T21:00:00Z,27.8966,-93.5973,2.0,188.8643922,5.515886148,-99999.0,'11133222,11111222,99999999' 
TABS,ioos:station:wmo:42047:1,2013-05-01T21:30:00Z,27.8966,-93.5973,2.0,62.78919366,8.332118578,-99999.0,'11133222,11111222,99999999' 
TABS,ioos:station:wmo:42047:1,2013-05-01T22:00:00Z,27.8966,-93.5973,2.0,71.39938066,8.746896593,-99999.0,'11133222,11111222,99999999' 
TABS,ioos:station:wmo:42047:1,2013-05-01T22:30:00Z,27.8966,-93.5973,2.0,154.8217552,7.944841093,-99999.0,'11133222,11111222,99999999' 
TABS,ioos:station:wmo:42047:1,2013-05-01T23:00:00Z,27.8966,-93.5973,2.0,41.99839105,7.696811028,-99999.0,'11133222,11111222,99999999' 
TABS,ioos:station:wmo:42047:1,2013-05-01T23:30:00Z,27.8966,-93.5973,2.0,221.8609927,7.102936013,-99999.0,'11133222,11111222,99999999' 
TABS,ioos:station:wmo:42047:1,2013-05-02T00:00:00Z,27.8966,-93.5973,2.0,44.41597275,16.64615872,-99999.0,'11111222,11111222,99999999' 
TABS,ioos:station:wmo:42047:1,2013-05-02T00:30:00Z,27.8966,-93.5973,2.0,233.7742684,11.91275367,-99999.0,'11111222,11111222,99999999' 
TABS,ioos:station:wmo:42047:1,2013-05-02T01:00:00Z,27.8966,-93.5973,2.0,238.0210744,11.32925858,-99999.0,'11111222,11111222,99999999' 
TABS,ioos:station:wmo:42047:1,2013-05-02T01:30:00Z,27.8966,-93.5973,2.0,44.52789906,10.2958244,-99999.0,'11111222,11111222,99999999' 
TABS,ioos:station:wmo:42047:1,2013-05-02T02:00:00Z,27.8966,-93.5973,2.0,46.93139909,12.79883198,-99999.0,'11111222,11111222,99999999' 
TABS,ioos:station:wmo:42047:1,2013-05-02T02:30:00Z,27.8966,-93.5973,2.0,275.2319342,5.593299563,-99999.0,'11133222,11111222,99999999' 
TABS,ioos:station:wmo:42047:1,2013-05-02T03:00:00Z,27.8966,-93.5973,2.0,255.6073583,18.34574883,-99999.0,'11111222,11111222,99999999' 
TABS,ioos:station:wmo:42047:1,2013-05-02T03:30:00Z,27.8966,-93.5973,2.0,242.4744177,12.00937134,-99999.0,'11111222,11111222,99999999' 
TABS,ioos:station:wmo:42047:1,2013-05-02T04:00:00Z,27.8966,-93.5973,2.0,251.0044147,12.28919851,-99999.0,'11111222,11111222,99999999' 
TABS,ioos:station:wmo:42047:1,2013-05-02T04:30:00Z,27.8966,-93.5973,2.0,232.408643,7.786616724,-99999.0,'11133222,11111222,99999999' 
TABS,ioos:station:wmo:42047:1,2013-05-02T05:00:00Z,27.8966,-93.5973,2.0,204.8967894,7.221087176,-99999.0,'11133222,11111222,99999999' 
TABS,ioos:station:wmo:42047:1,2013-05-02T05:30:00Z,27.8966,-93.5973,2.0,245.1795018,16.00872575,-99999.0,'11111222,11111222,99999999' 
TABS,ioos:station:wmo:42047:1,2013-05-02T06:00:00Z,27.8966,-93.5973,2.0,263.3838606,18.14079656,-99999.0,'11111222,11111222,99999999' 
TABS,ioos:station:wmo:42047:1,2013-05-02T06:30:00Z,27.8966,-93.5973,2.0,288.5761019,11.58345803,-99999.0,'11111222,11111222,99999999' 
TABS,ioos:station:wmo:42047:1,2013-05-02T07:00:00Z,27.8966,-93.5973,2.0,288.8827558,15.38811229,-99999.0,'11111222,11111222,99999999' 
TABS,ioos:station:wmo:42047:1,2013-05-02T07:30:00Z,27.8966,-93.5973,2.0,302.5378042,13.92579262,-99999.0,'11111222,11111222,99999999' 
TABS,ioos:station:wmo:42047:1,2013-05-02T08:00:00Z,27.8966,-93.5973,2.0,334.4736994,7.402600894,-99999.0,'11133222,11111222,99999999' 
TABS,ioos:station:wmo:42047:1,2013-05-02T08:30:00Z,27.8966,-93.5973,2.0,341.9055025,12.78215162,-99999.0,'11111222,11111222,99999999' 
TABS,ioos:station:wmo:42047:1,2013-05-02T09:00:00Z,27.8966,-93.5973,2.0,14.99319264,14.37951668,-99999.0,'11111222,11111222,99999999' 
TABS,ioos:station:wmo:42047:1,2013-05-02T09:30:00Z,27.8966,-93.5973,2.0,26.65982477,16.24729208,-99999.0,'11111222,11111222,99999999' 
TABS,ioos:station:wmo:42047:1,2013-05-02T10:00:00Z,27.8966,-93.5973,2.0,51.23161138,20.58530058,-99999.0,'11111222,11111222,99999999' 
TABS,ioos:station:wmo:42047:1,2013-05-02T10:30:00Z,27.8966,-93.5973,2.0,45.67042975,20.54992944,-99999.0,'11111222,11111222,99999999' 
TABS,ioos:station:wmo:42047:1,2013-05-02T11:00:00Z,27.8966,-93.5973,2.0,54.50956221,22.59854863,-99999.0,'11111222,11111222,99999999' 
TABS,ioos:station:wmo:42047:1,2013-05-02T11:30:00Z,27.8966,-93.5973,2.0,55.82602405,25.9387066,-99999.0,'11111222,11111222,99999999' 
TABS,ioos:station:wmo:42047:1,2013-05-02T12:00:00Z,27.8966,-93.5973,2.0,68.10244743,26.545186,-99999.0,'11111222,11111222,99999999' 
TABS,ioos:station:wmo:42047:1,2013-05-02T12:30:00Z,27.8966,-93.5973,2.0,64.92082933,22.76635456,-99999.0,'11111222,11111222,99999999' 
TABS,ioos:station:wmo:42047:1,2013-05-02T13:00:00Z,27.8966,-93.5973,2.0,73.08551107,18.35399684,-99999.0,'11111222,11111222,99999999' 
TABS,ioos:station:wmo:42047:1,2013-05-02T13:30:00Z,27.8966,-93.5973,2.0,73.41779509,20.638326,-99999.0,'11111222,11111222,99999999' 
TABS,ioos:station:wmo:42047:1,2013-05-02T14:00:00Z,27.8966,-93.5973,2.0,73.08586039,21.44779709,-99999.0,'11111222,11111222,99999999' 
TABS,ioos:station:wmo:42047:1,2013-05-02T14:30:00Z,27.8966,-93.5973,2.0,58.32021535,21.26920074,-99999.0,'11111222,11111222,99999999' 
TABS,ioos:station:wmo:42047:1,2013-05-02T15:00:00Z,27.8966,-93.5973,2.0,61.59838657,17.30263853,-99999.0,'11111222,11111222,99999999' 
TABS,ioos:station:wmo:42047:1,2013-05-02T15:30:00Z,27.8966,-93.5973,2.0,55.48081545,16.48186883,-99999.0,'11111222,11111222,99999999' 
TABS,ioos:station:wmo:42047:1,2013-05-02T16:00:00Z,27.8966,-93.5973,2.0,83.9427343,11.18243265,-99999.0,'11111222,11111222,99999999' 
TABS,ioos:station:wmo:42047:1,2013-05-02T16:30:00Z,27.8966,-93.5973,2.0,98.45266261,9.796412609,-99999.0,'11133222,11111222,99999999' 
TABS,ioos:station:wmo:42047:1,2013-05-02T17:00:00Z,27.8966,-93.5973,2.0,116.6193149,14.14984452,-99999.0,'11111222,11111222,99999999' 
TABS,ioos:station:wmo:42047:1,2013-05-02T17:30:00Z,27.8966,-93.5973,2.0,107.439347,10.01011988,-99999.0,'11111222,11111222,99999999' 
TABS,ioos:station:wmo:42047:1,2013-05-02T18:00:00Z,27.8966,-93.5973,2.0,69.7498806,11.18110012,-99999.0,'11111222,11111222,99999999' 
TABS,ioos:station:wmo:42047:1,2013-05-02T18:30:00Z,27.8966,-93.5973,2.0,112.4882529,14.40542259,-99999.0,'11111222,11111222,99999999' 
TABS,ioos:station:wmo:42047:1,2013-05-02T19:00:00Z,27.8966,-93.5973,2.0,112.5876982,9.606924586,-99999.0,'11133222,11111222,99999999' 
TABS,ioos:station:wmo:42047:1,2013-05-02T19:30:00Z,27.8966,-93.5973,2.0,35.01794838,9.096752168,-99999.0,'11133222,11111222,99999999' 
TABS,ioos:station:wmo:42047:1,2013-05-03T00:00:00Z,27.8966,-93.5973,2.0,178.2600361,4.281973844,-99999.0,'11133222,11111222,99999999' 
TABS,ioos:station:wmo:42047:1,2013-05-03T00:30:00Z,27.8966,-93.5973,2.0,168.8757066,7.256335163,-99999.0,'11133222,11111222,99999999' 
TABS,ioos:station:wmo:42047:1,2013-05-03T01:00:00Z,27.8966,-93.5973,2.0,328.127907,4.109622854,-99999.0,'11133222,11111222,99999999' 
TABS,ioos:station:wmo:42047:1,2013-05-03T01:30:00Z,27.8966,-93.5973,2.0,11.9891442,7.943261295,-99999.0,'11133222,11111222,99999999' 
TABS,ioos:station:wmo:42047:1,2013-05-03T02:00:00Z,27.8966,-93.5973,2.0,5.404556365,13.59041206,-99999.0,'11111222,11111222,99999999' 
TABS,ioos:station:wmo:42047:1,2013-05-03T02:30:00Z,27.8966,-93.5973,2.0,43.35114055,9.33767637,-99999.0,'11133222,11111222,99999999' 
TABS,ioos:station:wmo:42047:1,2013-05-03T03:00:00Z,27.8966,-93.5973,2.0,61.94290988,10.9917651,-99999.0,'11111222,11111222,99999999' 
TABS,ioos:station:wmo:42047:1,2013-05-03T03:30:00Z,27.8966,-93.5973,2.0,77.59112138,15.03114433,-99999.0,'11111222,11111222,99999999' 
TABS,ioos:station:wmo:42047:1,2013-05-03T04:00:00Z,27.8966,-93.5973,2.0,95.59932624,9.224012142,-99999.0,'11133222,11111222,99999999' 
TABS,ioos:station:wmo:42047:1,2013-05-03T04:30:00Z,27.8966,-93.5973,2.0,132.0210217,16.32794537,-99999.0,'11111222,11111222,99999999' 
TABS,ioos:station:wmo:42047:1,2013-05-03T05:00:00Z,27.8966,-93.5973,2.0,143.8033533,20.42141033,-99999.0,'11111222,11111222,99999999' 
TABS,ioos:station:wmo:42047:1,2013-05-03T05:30:00Z,27.8966,-93.5973,2.0,149.1848436,12.55202374,-99999.0,'11111222,11111222,99999999' 
TABS,ioos:station:wmo:42047:1,2013-05-03T06:00:00Z,27.8966,-93.5973,2.0,161.0543201,16.32432541,-99999.0,'11111222,11111222,99999999' 
TABS,ioos:station:wmo:42047:1,2013-05-03T06:30:00Z,27.8966,-93.5973,2.0,149.5200098,18.27554103,-99999.0,'11111222,11111222,99999999' 
TABS,ioos:station:wmo:42047:1,2013-05-03T07:00:00Z,27.8966,-93.5973,2.0,145.9514694,20.8432675,-99999.0,'11111222,11111222,99999999' 
TABS,ioos:station:wmo:42047:1,2013-05-03T07:30:00Z,27.8966,-93.5973,2.0,124.2970722,14.65877553,-99999.0,'11111222,11111222,99999999' 
TABS,ioos:station:wmo:42047:1,2013-05-03T08:00:00Z,27.8966,-93.5973,2.0,163.7220232,13.02200061,-99999.0,'11111222,11111222,99999999' 
TABS,ioos:station:wmo:42047:1,2013-05-03T08:30:00Z,27.8966,-93.5973,2.0,150.5471509,12.16176385,-99999.0,'11111222,11111222,99999999' 
TABS,ioos:station:wmo:42047:1,2013-05-03T09:00:00Z,27.8966,-93.5973,2.0,150.4977331,14.05202121,-99999.0,'11111222,11111222,99999999' 
TABS,ioos:station:wmo:42047:1,2013-05-03T09:30:00Z,27.8966,-93.5973,2.0,148.5357195,10.21141518,-99999.0,'11111222,11111222,99999999' 
TABS,ioos:station:wmo:42047:1,2013-05-03T10:00:00Z,27.8966,-93.5973,2.0,288.4353266,2.308462692,-99999.0,'11133222,11111222,99999999' 
TABS,ioos:station:wmo:42047:1,2013-05-03T10:30:00Z,27.8966,-93.5973,2.0,254.4152144,3.052212312,-99999.0,'11133222,11111222,99999999' 
TABS,ioos:station:wmo:42047:1,2013-05-03T11:00:00Z,27.8966,-93.5973,2.0,354.74995,3.715588782,-99999.0,'11133222,11111222,99999999' 
TABS,ioos:station:wmo:42047:1,2013-05-03T11:30:00Z,27.8966,-93.5973,2.0,134.086054,11.52730671,-99999.0,'11111222,11111222,99999999' 
TABS,ioos:station:wmo:42047:1,2013-05-03T12:00:00Z,27.8966,-93.5973,2.0,103.8227759,5.859701358,-99999.0,'11133222,11111222,99999999' 
TABS,ioos:station:wmo:42047:1,2013-05-03T12:30:00Z,27.8966,-93.5973,2.0,36.26139958,4.142233697,-99999.0,'11133222,11111222,99999999' 
TABS,ioos:station:wmo:42047:1,2013-05-03T13:00:00Z,27.8966,-93.5973,2.0,145.2296246,12.06409963,-99999.0,'11111222,11111222,99999999' 
TABS,ioos:station:wmo:42047:1,2013-05-03T13:30:00Z,27.8966,-93.5973,2.0,163.97149,9.4888777,-99999.0,'11133222,11111222,99999999' 
TABS,ioos:station:wmo:42047:1,2013-05-03T14:00:00Z,27.8966,-93.5973,2.0,147.4151474,5.03206717,-99999.0,'11133222,11111222,99999999' 
TABS,ioos:station:wmo:42047:1,2013-05-03T14:30:00Z,27.8966,-93.5973,2.0,163.5117125,13.77650899,-99999.0,'11111222,11111222,99999999' 
TABS,ioos:station:wmo:42047:1,2013-05-03T15:00:00Z,27.8966,-93.5973,2.0,171.8082229,11.86101598,-99999.0,'11111222,11111222,99999999' 
TABS,ioos:station:wmo:42047:1,2013-05-03T15:30:00Z,27.8966,-93.5973,2.0,123.8433317,14.50823559,-99999.0,'11111222,11111222,99999999' 
TABS,ioos:station:wmo:42047:1,2013-05-03T16:00:00Z,27.8966,-93.5973,2.0,146.4968269,16.99333104,-99999.0,'11111222,11111222,99999999' 
TABS,ioos:station:wmo:42047:1,2013-05-03T16:30:00Z,27.8966,-93.5973,2.0,144.4509051,17.69870334,-99999.0,'11111222,11111222,99999999' 
TABS,ioos:station:wmo:42047:1,2013-05-03T17:00:00Z,27.8966,-93.5973,2.0,156.8319936,17.13155276,-99999.0,'11111222,11111222,99999999' 
TABS,ioos:station:wmo:42047:1,2013-05-03T17:30:00Z,27.8966,-93.5973,2.0,147.6840252,20.93208542,-99999.0,'11111222,11111222,99999999' 
TABS,ioos:station:wmo:42047:1,2013-05-03T18:00:00Z,27.8966,-93.5973,2.0,155.3808179,14.35489115,-99999.0,'11111222,11111222,99999999' 
TABS,ioos:station:wmo:42047:1,2013-05-03T18:30:00Z,27.8966,-93.5973,2.0,146.2983941,13.9312957,-99999.0,'11111222,11111222,99999999' 
TABS,ioos:station:wmo:42047:1,2013-05-03T19:00:00Z,27.8966,-93.5973,2.0,150.2844155,14.48477822,-99999.0,'11111222,11111222,99999999' 
TABS,ioos:station:wmo:42047:1,2013-05-03T19:30:00Z,27.8966,-93.5973,2.0,151.030483,15.67074344,-99999.0,'11111222,11111222,99999999' 
TABS,ioos:station:wmo:42047:1,2013-05-03T20:00:00Z,27.8966,-93.5973,2.0,144.4723267,13.14760815,-99999.0,'11111222,11111222,99999999' 
TABS,ioos:station:wmo:42047:1,2013-05-03T20:30:00Z,27.8966,-93.5973,2.0,164.6235742,14.51972796,-99999.0,'11111222,11111222,99999999' 
TABS,ioos:station:wmo:42047:1,2013-05-03T21:00:00Z,27.8966,-93.5973,2.0,137.2904995,5.307541804,-99999.0,'11133222,11111222,99999999' 
TABS,ioos:station:wmo:42047:1,2013-05-03T21:30:00Z,27.8966,-93.5973,2.0,166.3545667,9.240822474,-99999.0,'11133222,11111222,99999999' 
TABS,ioos:station:wmo:42047:1,2013-05-03T22:00:00Z,27.8966,-93.5973,2.0,156.7355849,9.165195033,-99999.0,'11133222,11111222,99999999' 
TABS,ioos:station:wmo:42047:1,2013-05-03T22:30:00Z,27.8966,-93.5973,2.0,180.5032533,5.690219679,-99999.0,'11133222,11111222,99999999' 
TABS,ioos:station:wmo:42047:1,2013-05-03T23:00:00Z,27.8966,-93.5973,2.0,122.5899375,9.245782822,-99999.0,'11133222,11111222,99999999' 
TABS,ioos:station:wmo:42047:1,2013-05-03T23:30:00Z,27.8966,-93.5973,2.0,150.7978767,9.817789975,-99999.0,'11133222,11111222,99999999' 
TABS,ioos:station:wmo:42047:1,2013-05-04T00:00:00Z,27.8966,-93.5973,2.0,137.0144888,8.448076704,-99999.0,'11133222,11111222,99999999' 
TABS,ioos:station:wmo:42047:1,2013-05-04T00:30:00Z,27.8966,-93.5973,2.0,157.1192059,7.09853506,-99999.0,'11133222,11111222,99999999' 
TABS,ioos:station:wmo:42047:1,2013-05-04T01:00:00Z,27.8966,-93.5973,2.0,141.1599409,6.457816969,-99999.0,'11133222,11111222,99999999' 
TABS,ioos:station:wmo:42047:1,2013-05-04T01:30:00Z,27.8966,-93.5973,2.0,134.4250414,6.343067081,-99999.0,'11133222,11111222,99999999' 
TABS,ioos:station:wmo:42047:1,2013-05-04T02:00:00Z,27.8966,-93.5973,2.0,159.8203781,1.246515142,-99999.0,'11133222,11111222,99999999' 
TABS,ioos:station:wmo:42047:1,2013-05-04T02:30:00Z,27.8966,-93.5973,2.0,159.1847722,2.588976632,-99999.0,'11133222,11111222,99999999' 
TABS,ioos:station:wmo:42047:1,2013-05-04T03:00:00Z,27.8966,-93.5973,2.0,112.6003436,4.527692569,-99999.0,'11133222,11111222,99999999' 
TABS,ioos:station:wmo:42047:1,2013-05-04T03:30:00Z,27.8966,-93.5973,2.0,140.1230483,7.205921176,-99999.0,'11133222,11111222,99999999' 
TABS,ioos:station:wmo:42047:1,2013-05-04T04:00:00Z,27.8966,-93.5973,2.0,143.7524721,4.786282482,-99999.0,'11133222,11111222,99999999' 
TABS,ioos:station:wmo:42047:1,2013-05-04T04:30:00Z,27.8966,-93.5973,2.0,127.2227058,4.546086229,-99999.0,'11133222,11111222,99999999' 
TABS,ioos:station:wmo:42047:1,2013-05-04T05:00:00Z,27.8966,-93.5973,2.0,290.6529566,1.389280389,-99999.0,'11133222,11111222,99999999' 
TABS,ioos:station:wmo:42047:1,2013-05-04T05:30:00Z,27.8966,-93.5973,2.0,97.92509085,7.905504411,-99999.0,'11133222,11111222,99999999' 
TABS,ioos:station:wmo:42047:1,2013-05-04T06:00:00Z,27.8966,-93.5973,2.0,177.3864494,2.412509067,-99999.0,'11133222,11111222,99999999' 
TABS,ioos:station:wmo:42047:1,2013-05-04T06:30:00Z,27.8966,-93.5973,2.0,157.9559283,6.581101731,-99999.0,'11133222,11111222,99999999' 
TABS,ioos:station:wmo:42047:1,2013-05-04T07:00:00Z,27.8966,-93.5973,2.0,138.0603124,3.575989374,-99999.0,'11133222,11111222,99999999' 
TABS,ioos:station:wmo:42047:1,2013-05-04T07:30:00Z,27.8966,-93.5973,2.0,139.8989758,4.967896939,-99999.0,'11133222,11111222,99999999' 
TABS,ioos:station:wmo:42047:1,2013-05-04T08:00:00Z,27.8966,-93.5973,2.0,152.3154898,5.036586145,-99999.0,'11133222,11111222,99999999' 
TABS,ioos:station:wmo:42047:1,2013-05-04T08:30:00Z,27.8966,-93.5973,2.0,187.1405645,4.504941731,-99999.0,'11133222,11111222,99999999' 
TABS,ioos:station:wmo:42047:1,2013-05-04T09:00:00Z,27.8966,-93.5973,2.0,278.0016054,2.514478077,-99999.0,'11133222,11111222,99999999' 
TABS,ioos:station:wmo:42047:1,2013-05-04T09:30:00Z,27.8966,-93.5973,2.0,238.418361,2.864192731,-99999.0,'11133222,11111222,99999999' 
TABS,ioos:station:wmo:42047:1,2013-05-04T10:00:00Z,27.8966,-93.5973,2.0,218.3372228,4.997639443,-99999.0,'11133222,11111222,99999999' 
TABS,ioos:station:wmo:42047:1,2013-05-04T10:30:00Z,27.8966,-93.5973,2.0,259.1245463,2.067123605,-99999.0,'11133222,11111222,99999999' 
TABS,ioos:station:wmo:42047:1,2013-05-04T11:00:00Z,27.8966,-93.5973,2.0,280.9039817,3.594899164,-99999.0,'11133222,11111222,99999999' 
TABS,ioos:station:wmo:42047:1,2013-05-04T11:30:00Z,27.8966,-93.5973,2.0,340.5333137,12.99274413,-99999.0,'11111222,11111222,99999999' 
TABS,ioos:station:wmo:42047:1,2013-05-04T12:00:00Z,27.8966,-93.5973,2.0,31.38170749,18.10901709,-99999.0,'11111222,11111222,99999999' 
TABS,ioos:station:wmo:42047:1,2013-05-04T12:30:00Z,27.8966,-93.5973,2.0,8.243348953,20.78473719,-99999.0,'11111222,11111222,99999999' 
TABS,ioos:station:wmo:42047:1,2013-05-04T13:00:00Z,27.8966,-93.5973,2.0,23.24415569,21.53820095,-99999.0,'11111222,11111222,99999999' 
TABS,ioos:station:wmo:42047:1,2013-05-04T13:30:00Z,27.8966,-93.5973,2.0,28.65172656,21.12696145,-99999.0,'11111222,11111222,99999999' 
TABS,ioos:station:wmo:42047:1,2013-05-04T14:00:00Z,27.8966,-93.5973,2.0,30.38718188,23.68343936,-99999.0,'11111222,11111222,99999999' 
TABS,ioos:station:wmo:42047:1,2013-05-04T14:30:00Z,27.8966,-93.5973,2.0,32.56719461,21.08543099,-99999.0,'11111222,11111222,99999999' 
TABS,ioos:station:wmo:42047:1,2013-05-04T15:00:00Z,27.8966,-93.5973,2.0,38.23460102,20.82790676,-99999.0,'11111222,11111222,99999999' 
TABS,ioos:station:wmo:42047:1,2013-05-04T15:30:00Z,27.8966,-93.5973,2.0,40.38122485,23.7085048,-99999.0,'11111222,11111222,99999999' 
TABS,ioos:station:wmo:42047:1,2013-05-04T16:00:00Z,27.8966,-93.5973,2.0,40.05094852,23.03148497,-99999.0,'11111222,11111222,99999999' 
TABS,ioos:station:wmo:42047:1,2013-05-04T16:30:00Z,27.8966,-93.5973,2.0,46.83547026,19.2078031,-99999.0,'11111222,11111222,99999999' 
TABS,ioos:station:wmo:42047:1,2013-05-04T17:00:00Z,27.8966,-93.5973,2.0,44.00287499,19.90807123,-99999.0,'11111222,11111222,99999999' 
TABS,ioos:station:wmo:42047:1,2013-05-04T17:30:00Z,27.8966,-93.5973,2.0,46.39459889,22.08241382,-99999.0,'11111222,11111222,99999999' 
TABS,ioos:station:wmo:42047:1,2013-05-04T18:00:00Z,27.8966,-93.5973,2.0,56.26508357,24.75905087,-99999.0,'11111222,11111222,99999999' 
TABS,ioos:station:wmo:42047:1,2013-05-04T18:30:00Z,27.8966,-93.5973,2.0,43.19137014,24.86719325,-99999.0,'11111222,11111222,99999999' 
TABS,ioos:station:wmo:42047:1,2013-05-04T19:00:00Z,27.8966,-93.5973,2.0,53.00510049,21.9860524,-99999.0,'11111222,11111222,99999999' 
TABS,ioos:station:wmo:42047:1,2013-05-04T19:30:00Z,27.8966,-93.5973,2.0,56.69901548,28.59545418,-99999.0,'11111222,11111222,99999999' 
TABS,ioos:station:wmo:42047:1,2013-05-04T20:00:00Z,27.8966,-93.5973,2.0,53.17529356,27.94600866,-99999.0,'11111222,11111222,99999999' 